Waarnemingen

Advertentie
Mijn weer
Shoreham Airport, Groot Brittannië (3876): temperatuur & dauwpunt: 26.03.2020 19:00:00 - 01.04.2020 19:00:00 (BST)Shoreham Airport, Groot Brittannië (3876): windsnelheid & windstoten: 26.03.2020 19:00:00 - 01.04.2020 19:00:00 (BST)Shoreham Airport, Groot Brittannië (3876): windrichting: 26.03.2020 19:00:00 - 01.04.2020 19:00:00 (BST)Shoreham Airport, Groot Brittannië (3876): luchtdruk: 26.03.2020 19:00:00 - 01.04.2020 19:00:00 (BST)Shoreham Airport, Groot Brittannië (3876): zicht: 26.03.2020 19:00:00 - 01.04.2020 19:00:00 (BST)Shoreham Airport, Groot Brittannië (3876): neerslag: 26.03.2020 19:00:00 - 01.04.2020 19:00:00 (BST)
Datum & Tijd tt [°C] td [°C] ff [km/u] ff [kn] fx [km/u] fx [kn] dd ppp [hPa] vv [km] rr [mm]
01.04.2020 19:00:00 7,7 -0,6 15 8 - - NNW 1020,5 - -
01.04.2020 18:00:00 8,8 -0,6 11 6 - - N 1020,8 10 0,0
01.04.2020 17:00:00 8,1 2,9 15 8 - - ZZW 1021,0 10 0,0
01.04.2020 16:00:00 8,7 1,6 11 6 - - ZZW 1021,5 10 0,0
01.04.2020 15:00:00 9,6 2,8 16 9 - - Z 1021,9 - 0,0
01.04.2020 14:00:00 9,1 1,5 15 8 - - Z 1022,5 10 0,0
01.04.2020 13:00:00 8,9 -0,4 11 6 - - N 1023,2 10 0,0
01.04.2020 12:00:00 9,3 1,7 15 8 - - NO 1024,0 10 0,0
01.04.2020 11:00:00 7,4 1,1 13 7 - - NNO 1024,7 10 0,0
01.04.2020 10:00:00 5,0 1,8 15 8 - - NNW 1025,3 10 0,0
01.04.2020 09:00:00 2,9 1,0 15 8 - - NNW 1025,4 - 0,0
01.04.2020 08:00:00 0,8 -0,6 16 9 - - N 1025,6 - 0,0
01.04.2020 07:00:00 -0,2 -1,2 15 8 - - N 1025,6 - 0,0
01.04.2020 06:00:00 -0,3 -1,4 15 8 - - N 1025,7 - 0,0
01.04.2020 05:00:00 -0,3 -1,6 13 7 - - N 1026,0 - 0,0
01.04.2020 04:00:00 -1,0 -2,2 13 7 - - N 1026,5 - 0,0
01.04.2020 03:00:00 -0,5 -2,0 16 9 - - N 1027,2 - 0,0
01.04.2020 02:00:00 -0,5 -2,2 13 7 - - N 1027,8 - 0,0
01.04.2020 01:00:00 0,3 -2,1 11 6 - - N 1028,3 - 0,0
01.04.2020 00:00:00 2,0 -1,4 11 6 - - NNO 1028,5 - 0,0
31.03.2020 23:00:00 2,2 -1,5 11 6 - - NNO 1028,9 - 0,0
31.03.2020 22:00:00 2,9 -2,5 13 7 - - NO 1029,1 - 0,0
31.03.2020 21:00:00 4,6 -3,3 16 9 - - NNO 1029,2 - 0,0
31.03.2020 20:00:00 5,5 -1,0 13 7 - - NO 1029,2 - 0,0
31.03.2020 19:00:00 7,7 -0,1 18 10 - - NO 1029,2 - 0,0
31.03.2020 18:00:00 9,4 0,2 26 14 - - NO 1029,3 10 0,0
31.03.2020 17:00:00 8,7 -0,9 28 15 - - NO 1029,3 10 -
31.03.2020 16:00:00 10,3 0,7 24 13 - - NO 1029,5 10 0,0
31.03.2020 15:00:00 10,3 -0,2 26 14 - - NO 1029,9 10 0,0
31.03.2020 14:00:00 10,6 -0,1 21 11 - - ONO 1030,5 10 0,0
31.03.2020 13:00:00 9,3 0,2 22 12 - - ONO 1030,9 10 0,0
31.03.2020 12:00:00 9,4 -0,1 26 14 - - NO 1031,1 10 0,0
31.03.2020 11:00:00 7,8 2,3 26 14 - - NO 1031,3 10 0,0
31.03.2020 10:00:00 7,2 3,8 26 14 - - NNO 1031,6 10 0,0
31.03.2020 09:00:00 5,8 2,7 26 14 - - NNO 1031,4 10 0,0
31.03.2020 08:00:00 4,2 1,9 16 9 - - N 1031,2 - 0,0
31.03.2020 07:00:00 3,5 1,4 18 10 - - N 1030,9 - 0,0
31.03.2020 06:00:00 3,4 1,3 21 11 - - N 1030,3 - 0,0
31.03.2020 05:00:00 3,9 1,7 22 12 - - N 1030,3 - 0,0
31.03.2020 04:00:00 3,9 1,8 18 10 - - N 1030,5 - 0,0
31.03.2020 03:00:00 4,1 2,0 21 11 - - N 1030,7 - 0,0
31.03.2020 02:00:00 5,0 2,2 22 12 - - N 1030,8 - 0,0
31.03.2020 01:00:00 5,4 2,2 26 14 - - NNO 1030,9 - 0,0
31.03.2020 00:00:00 5,3 1,7 18 10 - - NNO 1031,0 - 0,0
30.03.2020 23:00:00 5,9 3,0 21 11 - - NNO 1031,0 - 0,0
30.03.2020 22:00:00 6,1 3,7 16 9 - - NNO 1030,9 - 0,2
30.03.2020 21:00:00 7,0 3,2 15 8 - - NO 1031,1 - 0,0
30.03.2020 20:00:00 7,4 2,6 16 9 - - NNO 1030,7 - 0,0
30.03.2020 19:00:00 7,3 2,2 16 9 - - NNO 1030,5 - 0,0
30.03.2020 18:00:00 8,4 2,6 22 12 - - NNO 1030,4 10 0,0
30.03.2020 17:00:00 7,7 2,7 26 14 - - N 1030,9 10 0,0
30.03.2020 16:00:00 9,4 2,3 21 11 - - NNO 1031,1 10 0,0
30.03.2020 15:00:00 8,6 2,1 22 12 - - N 1031,8 10 0,0
30.03.2020 14:00:00 9,2 3,0 28 15 - - N 1032,3 10 0,0
30.03.2020 13:00:00 8,1 1,8 28 15 - - N 1033,0 10 0,0
30.03.2020 12:00:00 8,4 0,7 26 14 - - NNO 1033,6 10 0,0
30.03.2020 11:00:00 7,4 0,3 24 13 - - NNO 1034,2 10 0,0
30.03.2020 10:00:00 6,0 0,6 24 13 - - N 1034,9 10 0,0
30.03.2020 09:00:00 4,2 0,4 16 9 - - N 1035,3 10 0,0
30.03.2020 08:00:00 2,3 -0,2 16 9 - - N 1035,7 - 0,0
30.03.2020 07:00:00 1,7 -0,9 15 8 - - N 1035,9 - 0,0
30.03.2020 06:00:00 2,2 -0,5 18 10 - - N 1035,8 - 0,0
30.03.2020 05:00:00 1,3 -1,7 13 7 - - N 1036,2 - 0,0
30.03.2020 04:00:00 1,6 -3,1 16 9 - - N 1036,4 - 0,0
30.03.2020 03:00:00 2,2 -3,1 16 9 - - N 1037,2 - 0,0
30.03.2020 02:00:00 2,5 -3,7 21 11 - - N 1037,7 - 0,0
30.03.2020 01:00:00 3,1 -3,9 21 11 - - N 1037,9 - 0,0
30.03.2020 00:00:00 3,1 -3,9 24 13 - - N 1038,1 - 0,0
29.03.2020 23:00:00 3,2 -4,0 24 13 - - NNO 1038,5 - 0,0
29.03.2020 22:00:00 3,4 -4,5 28 15 50 27 NNO 1038,5 - 0,0
29.03.2020 21:00:00 3,8 -4,8 35 19 52 28 NNO 1038,1 - 0,0
29.03.2020 20:00:00 4,5 -4,5 35 19 55 30 NNO 1037,5 - 0,0
29.03.2020 19:00:00 5,4 -3,3 31 17 67 36 NNO 1037,0 - 0,0
29.03.2020 18:00:00 5,4 -0,6 37 20 55 30 NNO 1036,5 10 0,0
29.03.2020 17:00:00 2,6 0,5 42 23 63 34 NNO 1036,7 10 0,4
29.03.2020 16:00:00 6,0 1,4 31 17 63 34 NNO 1036,4 10 0,4
29.03.2020 15:00:00 4,9 1,9 28 15 65 35 NO 1036,7 10 0,2
29.03.2020 14:00:00 5,0 2,5 35 19 68 37 NNO 1036,6 10 0,6
29.03.2020 13:00:00 8,0 -0,8 39 21 68 37 NNO 1035,9 10 0,0
29.03.2020 12:00:00 8,0 -1,1 46 25 74 40 NNO 1035,8 10 0,0
29.03.2020 11:00:00 7,7 -1,5 42 23 65 35 NNO 1035,3 10 0,0
29.03.2020 10:00:00 6,2 -2,6 48 26 68 37 NNO 1035,1 10 0,0
29.03.2020 09:00:00 5,1 -2,5 39 21 59 32 N 1035,1 10 0,0
29.03.2020 08:00:00 4,1 -2,7 34 18 52 28 N 1034,7 - 0,0
29.03.2020 07:00:00 4,0 -2,3 31 17 55 30 N 1034,2 - 0,0
29.03.2020 06:00:00 4,1 -2,3 31 17 46 25 N 1033,9 - 0,0
29.03.2020 05:00:00 3,6 -2,6 26 14 50 27 N 1033,8 - 0,0
29.03.2020 04:00:00 4,1 -0,9 26 14 48 26 N 1033,7 - 0,0
29.03.2020 03:00:00 4,3 -0,3 29 16 52 28 N 1033,6 - 0,0
29.03.2020 02:00:00 4,9 0,3 29 16 46 25 NNO 1033,3 - 0,0
29.03.2020 01:00:00 5,0 0,5 29 16 46 25 N 1033,0 - 0,0
29.03.2020 00:00:00 5,3 0,3 31 17 46 25 NNO 1032,4 - 0,0
28.03.2020 23:00:00 5,6 -0,4 31 17 54 29 NNO 1032,1 - 0,0
28.03.2020 22:00:00 6,2 0,1 34 18 55 30 N 1031,4 - 0,0
28.03.2020 21:00:00 7,5 0,2 31 17 63 34 N 1030,6 - 0,0
28.03.2020 20:00:00 8,2 -0,5 34 18 55 30 NNO 1029,7 10 0,0
28.03.2020 19:00:00 9,0 0,8 39 21 59 32 NNO 1028,8 10 0,0
28.03.2020 18:00:00 9,3 1,9 46 25 72 39 NNO 1027,9 10 0,0
28.03.2020 17:00:00 9,7 2,9 37 20 65 35 NNO 1027,5 10 0,0
28.03.2020 16:00:00 10,8 3,5 50 27 67 36 NNO 1026,9 10 0,0
28.03.2020 15:00:00 12,1 1,8 48 26 70 38 NNO 1026,4 10 0,0
28.03.2020 14:00:00 11,6 1,4 39 21 67 36 NNO 1026,2 10 0,0
28.03.2020 13:00:00 11,5 1,7 42 23 63 34 NNO 1025,9 10 0,0
28.03.2020 12:00:00 11,1 2,1 46 25 67 36 NNO 1025,6 10 0,0
28.03.2020 11:00:00 10,1 2,5 39 21 57 31 NNO 1025,5 10 0,0
28.03.2020 10:00:00 8,2 2,7 34 18 55 30 N 1025,3 - 0,0
28.03.2020 09:00:00 6,7 2,6 37 20 54 29 N 1024,5 - 0,0
28.03.2020 08:00:00 5,2 1,8 24 13 - - N 1024,5 - 0,0
28.03.2020 07:00:00 4,6 1,5 18 10 - - N 1024,1 - 0,0
28.03.2020 06:00:00 4,9 1,8 24 13 - - N 1023,6 - 0,0
28.03.2020 05:00:00 4,9 1,8 26 14 - - N 1023,2 - 0,0
28.03.2020 04:00:00 5,1 1,7 26 14 - - N 1023,1 - 0,0
28.03.2020 03:00:00 5,3 1,4 29 16 - - N 1023,1 - 0,0
28.03.2020 02:00:00 5,6 0,9 28 15 - - N 1023,3 - 0,0
28.03.2020 01:00:00 5,8 0,4 26 14 46 25 N 1023,3 - 0,0
28.03.2020 00:00:00 6,5 -0,5 24 13 - - N 1023,5 - 0,0
27.03.2020 23:00:00 7,3 -1,1 22 12 - - N 1023,4 - 0,0
27.03.2020 22:00:00 8,4 -1,4 26 14 - - N 1023,1 - 0,0
27.03.2020 21:00:00 8,9 -0,3 18 10 - - NNO 1022,8 - 0,0
27.03.2020 20:00:00 9,7 0,5 21 11 - - NNO 1022,3 10 0,0
27.03.2020 19:00:00 10,7 0,7 18 10 - - NNO 1021,5 10 0,0
27.03.2020 18:00:00 11,9 0,4 24 13 - - NNO 1021,0 10 0,0
27.03.2020 17:00:00 12,8 0,4 28 15 46 25 NNO 1021,0 10 0,0
27.03.2020 16:00:00 12,8 0,0 31 17 46 25 NNO 1021,3 10 0,0
27.03.2020 15:00:00 12,6 0,2 31 17 46 25 NNO 1021,7 10 0,0
27.03.2020 14:00:00 12,6 1,9 29 16 - - NO 1022,1 10 0,0
27.03.2020 13:00:00 12,3 3,2 24 13 - - NNO 1022,6 10 0,0
27.03.2020 12:00:00 11,2 2,7 22 12 - - NNO 1022,8 10 0,0
27.03.2020 11:00:00 9,6 2,9 22 12 - - N 1022,9 10 0,0
27.03.2020 10:00:00 6,5 3,4 22 12 - - N 1022,9 - 0,0
27.03.2020 09:00:00 3,9 2,2 18 10 - - N 1022,8 - 0,0
27.03.2020 08:00:00 1,6 0,6 16 9 - - NNW 1022,6 - 0,0
27.03.2020 07:00:00 1,0 -0,1 18 10 - - NNW 1022,6 - 0,0
27.03.2020 06:00:00 1,3 0,1 16 9 - - NNW 1022,3 - 0,0
27.03.2020 05:00:00 1,5 -0,1 21 11 - - N 1022,3 - 0,0
27.03.2020 04:00:00 1,7 -0,3 21 11 - - NNW 1022,2 - 0,0
27.03.2020 03:00:00 2,0 -0,4 15 8 - - N 1022,4 - 0,0
27.03.2020 02:00:00 2,5 0,0 16 9 - - N 1022,5 - 0,0
27.03.2020 01:00:00 2,6 -0,3 16 9 - - N 1022,5 - 0,0
27.03.2020 00:00:00 4,7 0,5 21 11 - - NNO 1022,4 - 0,0
26.03.2020 23:00:00 4,8 0,1 21 11 - - NNO 1022,6 - 0,0
26.03.2020 22:00:00 4,8 -0,5 16 9 - - NNO 1022,7 - 0,0
26.03.2020 21:00:00 5,2 -1,7 15 8 - - NO 1022,5 - 0,0
26.03.2020 20:00:00 6,5 -3,8 16 9 - - NO 1021,7 10 0,0
26.03.2020 19:00:00 - - - - - - - - - -

tt = temperatuur
td = dauwpunt
ff = windsnelheid
fx = windstoten
dd = windrichting
ppp = luchtdruk
vv = zicht
rr = neerslag

Weerstations in de omgeving